This demonstration page uses our WeatherBlox Daily Observations layout. Learn more.

Left ArrowRight Arrow

Hourly Observations for August 16, 2021

Temp ( °F °C ) Dew Point ( °F °C ) Humidity (%) Winds ( mph kmh ) Pressure ( in mb ) Visibility ( mi km ) Precip ( " mm )
12:54 am 00:54 Clear 73 22.8 62 16.7 69 69 SSE 12 19 30.01 1016 10 16 0.00 0.00
1:54 am 01:54 Clear 72 22.2 61 16.1 68 68 SSE 13 20 29.99 1016 10 16 0.00 0.00
2:54 am 02:54 Clear 68 20 61 16.1 78 78 S 7 11 29.97 1015 10 16 0.00 0.00
3:54 am 03:54 Clear 66 18.9 61 16.1 84 84 S 7 11 29.97 1015 10 16 0.00 0.00
4:54 am 04:54 Clear 64 17.8 60 15.6 87 87 S 7 11 29.97 1015 10 16 0.00 0.00
5:54 am 05:54 Clear 64 17.8 60 15.6 87 87 S 6 9 29.97 1015 10 16 0.00 0.00
6:54 am 06:54 Sunny 64 17.8 59 15 84 84 SSE 3 6 29.97 1015 10 16 0.00 0.00
7:54 am 07:54 Sunny 68 20 61 16.1 78 78 S 5 7 29.99 1016 10 16 0.00 0.00
8:54 am 08:54 Sunny 73 22.8 60 15.6 64 64 S 10 17 29.98 1015 10 16 0.00 0.00
9:54 am 09:54 Sunny 78 25.6 61 16.1 56 56 S 10 17 29.98 1015 10 16 0.00 0.00
10:54 am 10:54 Sunny 83 28.3 64 17.8 53 53 SSE 14 22 29.97 1015 10 16 0.00 0.00
11:54 am 11:54 Sunny 86 30 66 18.9 51 51 S 13 20 29.96 1015 10 16 0.00 0.00
12:54 pm 12:54 Mostly Sunny 87 30.6 67 19.4 51 51 SE 12 19 29.94 1014 10 16 0.00 0.00
1:54 pm 13:54 Partly Cloudy 90 32.2 68 20 48 48 SSE 12 19 29.93 1013 10 16 0.00 0.00
2:54 pm 14:54 Mostly Sunny 90 32.2 67 19.4 47 47 S 15 24 29.91 1013 10 16 0.00 0.00
3:54 pm 15:54 Partly Cloudy 91 32.8 66 18.9 44 44 SE 10 17 29.89 1012 10 16 0.00 0.00
4:54 pm 16:54 Mostly Cloudy 90 32.2 67 19.4 47 47 SSE 13 20 29.88 1012 10 16 0.00 0.00
5:54 pm 17:54 Mostly Sunny 89 31.7 67 19.4 48 48 SSE 14 22 29.87 1012 10 16 0.00 0.00
6:54 pm 18:54 Sunny 87 30.6 67 19.4 51 51 SE 14 22 29.86 1011 10 16 0.00 0.00
7:54 pm 19:54 Sunny 84 28.9 67 19.4 57 57 SE 14 22 29.87 1011 10 16 0.00 0.00
8:54 pm 20:54 Clear 81 27.2 67 19.4 62 62 SSE 13 20 29.88 1012 10 16 0.00 0.00
9:54 pm 21:54 Clear 79 26.1 68 20 69 69 SE 10 17 29.89 1012 10 16 0.00 0.00
10:54 pm 22:54 Clear 78 25.6 68 20 71 71 SSE 14 22 29.89 1012 10 16 0.00 0.00
11:54 pm 23:54 Clear 76 24.4 67 19.4 74 74 SSE 14 22 29.89 1012 10 16 0.00 0.00

Powered by AerisWeather